Regional Weather Roundup
Issued by NWS

Home | Current Version | Previous Version | Graphics & Text | Print | Product List | Glossary On
Versions: 1 2 3 4 5 6 7 8 9 10 11 12 13 14 15 16 17 18 19 20 21 22 23 24 25 26 27
000
ASUS45 KBOU 220407
RWRCO

WEATHER ROUNDUP FOR COLORADO
NATIONAL WEATHER SERVICE DENVER/BOULDER CO
1000 PM MDT TUE OCT 21 2014

NOTE: "FAIR" INDICATES FEW OR NO CLOUDS BELOW 12000 FEET WITH NO
SIGNIFICANT WEATHER AND/OR OBSTRUCTIONS TO VISIBILITY.

COZ001>005-013-030-031-220500-
...NORTHWEST COLORADO...

CITY           SKY/WX    TMP DP  RH WIND       PRES   REMARKS
CRAIG          LGT RAIN  48  39  71 W14G26    30.15R
HAYDEN         CLOUDY    46  37  71 NW10      30.12R
MEEKER         LGT RAIN  50  38  63 NW13      30.11R
MOUNT WERNER   NOT AVBL
STEAMBOAT SPGS CLOUDY    48  38  67 W16       30.10R
WALDEN         CLOUDY    41  34  75 N13       30.13R
$$

COZ006>008-011-220500-
...WEST CENTRAL VALLEYS...

CITY           SKY/WX    TMP DP  RH WIND       PRES   REMARKS
GRAND JUNCTION PTCLDY    54  46  74 E10       29.98R
MONTROSE       CLEAR     50  43  77 SE6       30.07R
EAGLE          PTCLDY    46  39  76 E7        30.10S
RIFLE          MOCLDY    52  44  74 CALM      30.03R
DELTA          CLEAR     56  45  65 NE8       30.03R
NUCLA          CLEAR     54  37  54 E6        30.10R
$$

COZ017>023-064>068-220500-
...SOUTHWEST COLORADO...

CITY           SKY/WX    TMP DP  RH WIND       PRES   REMARKS
DURANGO        PTCLDY    46  43  89 CALM      30.14R
CORTEZ         CLOUDY    50  42  74 CALM      30.09R
PAGOSA SPRINGS CLOUDY    49  42  76 CALM      30.19R
TELLURIDE      PTCLDY    46  37  69 CALM      30.24R
WOLF CREEK PAS CLOUDY    32  32 100 SW18G24     N/A  FOG     WCI  20
$$

COZ009-010-012-014-032>034-037-058>063-220500-
...CENTRAL COLORADO...

CITY           SKY/WX    TMP DP  RH WIND       PRES   REMARKS
ASPEN          MOCLDY    42  38  85 SW6       30.14R
BUENA VISTA    MOCLDY    46  41  84 SE6       30.16R
COPPER MTN     MOCLDY    37  30  75 SW13G20   30.31S
BERTHOUD PASS  CLOUDY    30  27  86 W8        30.33S WCI  23
COTTONWOOD PAS CLOUDY    45  34  65 CALM      30.23S
GUNNISON       CLOUDY    46  39  76 N7        30.19R
KREMMLING      CLOUDY    48  36  61 SE3         N/A
LEADVILLE      PTCLDY    34  33  96 NE6       30.22R WCI  29
MONARCH PASS   CLOUDY    32  32 100 W17       30.42R WCI  21
SALIDA         MOCLDY    47  45  91 CALM      30.22S
SUNLIGHT       PTCLDY    37  34  87 CALM      30.27S
WILKERSON PASS NOT AVBL
$$

COZ069>075-220500-
...SAN LUIS VALLEY/SANGRE DE CRISTO MOUNTAINS...

CITY           SKY/WX    TMP DP  RH WIND       PRES   REMARKS
ALAMOSA        MOCLDY    49  38  65 S10       30.13R
LA VETA PASS   PTCLDY    39  34  81 S7        30.24R
SAGUACHE       MOCLDY    46  36  66 NW10      30.16R
$$

COZ035-036-038>040-220500-
...NORTHERN COLORADO FRONT RANGE...

CITY           SKY/WX    TMP DP  RH WIND       PRES   REMARKS
DENVER INTL AP CLOUDY    59  39  47 W15       29.97R
DMNS CITY PARK   N/A     59  37  44 NW1       29.96F
AURORA         MOCLDY    58  39  48 W7        29.99R
FRONT RANGE AP CLOUDY    61  41  48 W21       29.98R
ERIE MUNI ARPT CLOUDY    60  39  46 NW10G24   29.94F
BOULDER MUN AP CLOUDY    61  41  48 W13G22    29.94F
CENTENNIAL     CLOUDY    57  40  52 N7        29.99R
BROOMFIELD     MOCLDY    59  39  47 W25G35    29.96F
FORT COLLINS   CLOUDY    63  39  42 NW3       29.96S
LONGMONT       CLOUDY    64  39  41 NW12G22   29.97S
$$

COZ041-046-047-076>085-087-088-220500-
...PIKES PEAK/PALMER DIVIDE AND SOUTHERN FOOTHILLS...

CITY           SKY/WX    TMP DP  RH WIND       PRES   REMARKS
COLO. SPRINGS  MOCLDY    52  41  66 NE8       30.01R
A. F. ACADEMY  MOCLDY    49  37  61 N7        30.02S
ELLICOTT       MOCLDY    53  41  63 S10       29.99R
FALCON         MOCLDY    50  40  67 CALM      30.04S
FORT CARSON    MOCLDY    53  39  58 N9        29.98R
LIMON          CLEAR     52  41  66 SE10      29.97S
MONUMENT HILL  CLOUDY    52  39  62 SW8       30.03S
TRINIDAD       CLEAR     60  45  57 SW18G26   30.02R
$$

COZ042>045-048>051-090-091-220500-
...NORTHEAST COLORADO...

CITY           SKY/WX    TMP DP  RH WIND       PRES   REMARKS
GREELEY ARPT   CLOUDY    61  41  48 NW5       29.94R
AKRON          PTCLDY    58  42  55 S15       29.92R
BURLINGTON     CLEAR     62  44  51 S16       29.96S
WRAY           PTCLDY    64  44  47 S16G23    29.91S
STERLING       PTCLDY    54  43  66 SW6       29.88S
HOLYOKE        PTCLDY    61  45  55 S9        29.91S
FORT MORGAN    PTCLDY    60  38  44 S6        29.91S
$$

COZ086-089-092>099-220500-
...SOUTHEAST COLORADO...

CITY           SKY/WX    TMP DP  RH WIND       PRES   REMARKS
PUEBLO         PTCLDY    58  40  51 W8        29.92R
LA JUNTA       CLEAR     65  47  52 S14       29.94R
LAMAR          CLEAR     63  48  58 S17       29.93R
SPRINGFIELD      N/A     55  47  74 S14       30.01F
$$



USA.gov is the U.S. government's official web portal to all federal, state and local government web resources and services.